TimePDT,TemperatureF,Dew PointF,Humidity,Sea Level PressureIn,VisibilityMPH,Wind Direction,Wind SpeedMPH,Gust SpeedMPH,PrecipitationIn,Events,Conditions,WindDirDegrees,DateUTC
12:53 AM,71.1,19.0,14,29.98,10.0,NW,5.8,-,N/A,,Clear,320,2013-10-19 07:53:00
1:53 AM,66.0,19.9,17,29.99,10.0,North,8.1,-,N/A,,Clear,350,2013-10-19 08:53:00
2:53 AM,66.9,19.0,16,29.98,10.0,NW,6.9,-,N/A,,Clear,320,2013-10-19 09:53:00
3:53 AM,64.9,17.1,16,29.99,10.0,NNW,8.1,-,N/A,,Clear,340,2013-10-19 10:53:00
4:53 AM,64.0,18.0,17,29.99,10.0,North,6.9,-,N/A,,Clear,350,2013-10-19 11:53:00
5:53 AM,64.0,17.1,16,30.00,10.0,NNW,8.1,-,N/A,,Clear,330,2013-10-19 12:53:00
6:53 AM,62.1,17.1,18,30.01,10.0,North,8.1,-,N/A,,Clear,350,2013-10-19 13:53:00
7:53 AM,64.9,16.0,15,30.02,10.0,NNW,8.1,-,N/A,,Clear,330,2013-10-19 14:53:00
8:53 AM,72.0,17.1,12,30.03,10.0,NNW,4.6,-,N/A,,Clear,340,2013-10-19 15:53:00
9:53 AM,82.0,18.0,9,30.02,10.0,North,4.6,-,N/A,,Clear,360,2013-10-19 16:53:00
10:53 AM,87.1,10.9,6,30.02,10.0,Calm,Calm,-,N/A,,Clear,0,2013-10-19 17:53:00
11:53 AM,89.1,12.9,6,30.00,10.0,West,3.5,-,N/A,,Clear,270,2013-10-19 18:53:00
12:53 PM,90.0,3.9,4,29.98,10.0,South,4.6,-,N/A,,Clear,180,2013-10-19 19:53:00
1:53 PM,91.0,1.0,4,29.95,10.0,Variable,3.5,-,N/A,,Clear,0,2013-10-19 20:53:00
2:53 PM,93.0,6.1,4,29.93,10.0,SE,6.9,-,N/A,,Clear,140,2013-10-19 21:53:00
3:53 PM,93.0,10.9,5,29.91,10.0,SE,8.1,-,N/A,,Clear,130,2013-10-19 22:53:00
4:53 PM,91.0,12.9,6,29.91,10.0,ESE,8.1,-,N/A,,Clear,110,2013-10-19 23:53:00
5:53 PM,87.1,30.9,13,29.91,10.0,East,6.9,-,N/A,,Clear,100,2013-10-20 00:53:00
6:53 PM,82.9,28.9,14,29.93,10.0,East,3.5,-,N/A,,Clear,90,2013-10-20 01:53:00
7:53 PM,78.1,28.0,16,29.94,10.0,Calm,Calm,-,N/A,,Clear,0,2013-10-20 02:53:00
8:53 PM,75.0,27.0,17,29.95,10.0,Calm,Calm,-,N/A,,Clear,0,2013-10-20 03:53:00
9:53 PM,73.9,21.0,14,29.96,10.0,NW,5.8,-,N/A,,Clear,320,2013-10-20 04:53:00
10:53 PM,73.9,30.9,21,29.96,10.0,NW,4.6,-,N/A,,Clear,320,2013-10-20 05:53:00
11:53 PM,71.1,30.0,22,29.95,10.0,North,3.5,-,N/A,,Clear,350,2013-10-20 06:53:00